Location: Partizánske
(48.6285°N, 18.3769°E)
Time: 00:25:10
(UTC+02:00)

Vanguard 2 Rocket - All Passes

Search period start: 25 June 2022 00:00
Search period end: 05 July 2022 00:00
Orbit: 553 x 3323 km, 32.9° (Epoch: 24 June)

Date Brightness Start Highest point End Pass type
(mag) Time Alt. Az. Time Alt. Az. Time Alt. Az.
25 Jun - 06:10:17 10° SSW 06:16:19 26° SSE 06:25:23 10° ESE daylight
25 Jun - 08:20:50 10° WSW 08:29:20 36° S 08:42:51 10° ESE daylight
25 Jun - 10:33:31 10° WSW 10:43:46 30° SSW 10:58:13 10° SSE daylight
25 Jun - 12:50:36 10° WSW 12:58:28 15° SW 13:07:28 10° S daylight
26 Jun - 05:12:14 10° S 05:16:39 18° SSE 05:22:36 10° ESE daylight
26 Jun - 07:21:39 10° SW 07:28:54 33° S 07:40:25 10° ESE daylight
26 Jun - 09:33:30 10° WSW 09:42:45 32° S 09:56:37 10° SE daylight
26 Jun - 11:48:17 10° WSW 11:57:22 20° SSW 12:08:40 10° S daylight
27 Jun - 04:16:24 10° SSE 04:17:15 10° SE 04:18:08 10° SE daylight
27 Jun - 06:22:49 10° SW 06:28:48 28° SSE 06:38:00 10° ESE daylight
27 Jun - 08:33:53 10° WSW 08:42:00 33° S 08:54:39 10° SE daylight
27 Jun - 10:47:16 10° WSW 10:56:19 23° SSW 11:08:30 10° SSE daylight
28 Jun - 05:24:22 10° SSW 05:29:02 21° SSE 05:35:39 10° ESE daylight
28 Jun - 07:34:36 10° SW 07:41:33 31° S 07:52:31 10° ESE daylight
28 Jun - 09:46:59 10° WSW 09:55:24 26° SSW 10:07:30 10° SSE daylight
28 Jun - 12:04:28 10° SW 12:09:48 13° SW 12:15:49 10° SSW daylight
29 Jun - 04:26:41 10° S 04:29:33 14° SSE 04:33:02 10° ESE daylight
29 Jun - 06:35:36 10° SW 06:41:25 28° S 06:50:23 10° ESE daylight
29 Jun - 08:47:11 10° WSW 08:54:42 28° S 09:06:01 10° SE daylight
29 Jun - 11:01:57 10° WSW 11:08:53 16° SSW 11:17:30 10° S daylight
30 Jun - 05:36:53 10° SSW 05:41:35 23° SSE 05:48:22 10° ESE daylight
30 Jun - 07:47:45 10° WSW 07:54:17 28° S 08:04:17 10° SE daylight
30 Jun - 10:01:01 10° WSW 10:08:05 19° SSW 10:17:32 10° SSE daylight
01 Jul - 04:38:38 10° SSW 04:42:01 16° SSE 04:46:22 10° ESE daylight
01 Jul - 06:48:36 10° SW 06:54:09 26° S 07:02:30 10° SE daylight
01 Jul - 09:00:51 10° WSW 09:07:28 21° SSW 09:16:46 10° SSE daylight
02 Jul - 03:42:29 10° SSE 03:42:36 10° SSE 03:42:43 10° SSE visible
02 Jul - 05:49:43 10° SW 05:54:16 22° S 06:00:48 10° SE daylight
02 Jul - 08:01:11 10° WSW 08:07:05 22° S 08:15:36 10° SE daylight
02 Jul - 10:16:40 10° SW 10:20:48 12° SSW 10:25:39 10° S daylight
03 Jul - 04:51:09 10° SSW 04:54:38 18° SSE 04:59:12 10° SE daylight
03 Jul - 07:01:53 10° SW 07:06:57 22° S 07:14:16 10° SE daylight
03 Jul - 09:15:25 10° SW 09:20:16 15° SSW 09:26:22 10° S daylight
04 Jul - 03:53:09 10° S 03:55:09 12° SSE 03:57:26 10° SE visible
04 Jul - 06:02:49 10° SW 06:07:03 20° S 06:12:56 10° SE daylight
04 Jul - 08:15:13 10° SW 08:19:56 16° SSW 08:26:06 10° SSE daylight
